H1 CPF  2  DGF 2024 05 09 10 130 01 etalon1    NONE      
H2  8900103  525    19751 2024 05 09 00 00 00 2024 05 16 00 00 00   120 1 1  0 0 0 1
H5  0.5673
H9
10 0 60443  72000.000000  0     -12659630.958      13115560.181     -17760455.297
10 0 60443  72120.000000  0     -12566801.781      12834854.616     -18029934.044
10 0 60443  72240.000000  0     -12475517.442      12549052.593     -18293135.020
10 0 60443  72360.000000  0     -12385891.226      12258259.980     -18549966.917
10 0 60443  72480.000000  0     -12298034.095      11962585.964     -18800340.669
10 0 60443  72600.000000  0     -12212054.593      11662142.974     -19044169.479
10 0 60443  72720.000000  0     -12128058.766      11357046.607     -19281368.855
10 0 60443  72840.000000  0     -12046150.076      11047415.555     -19511856.633
10 0 60443  72960.000000  0     -11966429.321      10733371.521     -19735553.012
10 0 60443  73080.000000  0     -11888994.552      10415039.140     -19952380.575
10 0 60443  73200.000000  0     -11813940.999      10092545.894     -20162264.321
10 0 60443  73320.000000  0     -11741360.994       9766022.029     -20365131.689
10 0 60443  73440.000000  0     -11671343.899       9435600.465     -20560912.581
10 0 60443  73560.000000  0     -11603976.036       9101416.706     -20749539.391
10 0 60443  73680.000000  0     -11539340.620       8763608.750     -20930947.022
10 0 60443  73800.000000  0     -11477517.689       8422316.995     -21105072.913
10 0 60443  73920.000000  0     -11418584.049       8077684.143     -21271857.058
10 0 60443  74040.000000  0     -11362613.203       7729855.104     -21431242.026
10 0 60443  74160.000000  0     -11309675.306       7378976.898     -21583172.983
10 0 60443  74280.000000  0     -11259837.098       7025198.553     -21727597.707
10 0 60443  74400.000000  0     -11213161.859       6668671.005     -21864466.609
10 0 60443  74520.000000  0     -11169709.358       6309546.996     -21993732.747
10 0 60443  74640.000000  0     -11129535.805       5947980.968     -22115351.842
10 0 60443  74760.000000  0     -11092693.807       5584128.958     -22229282.294
10 0 60443  74880.000000  0     -11059232.328       5218148.492     -22335485.194
10 0 60443  75000.000000  0     -11029196.650       4850198.477     -22433924.337
10 0 60443  75120.000000  0     -11002628.337       4480439.093     -22524566.237
10 0 60443  75240.000000  0     -10979565.206       4109031.682     -22607380.130
10 0 60443  75360.000000  0     -10960041.293       3736138.640     -22682337.994
10 0 60443  75480.000000  0     -10944086.828       3361923.303     -22749414.548
10 0 60443  75600.000000  0     -10931728.212       2986549.838     -22808587.267
10 0 60443  75720.000000  0     -10922987.998       2610183.129     -22859836.385
10 0 60443  75840.000000  0     -10917884.871       2232988.664     -22903144.902
10 0 60443  75960.000000  0     -10916433.634       1855132.425     -22938498.589
10 0 60443  76080.000000  0     -10918645.199       1476780.769     -22965885.991
10 0 60443  76200.000000  0     -10924526.576       1098100.319     -22985298.430
10 0 60443  76320.000000  0     -10934080.867        719257.848     -22996730.009
10 0 60443  76440.000000  0     -10947307.268        340420.165     -23000177.609
10 0 60443  76560.000000  0     -10964201.065        -38245.999     -22995640.892
10 0 60443  76680.000000  0     -10984753.642       -416574.102     -22983122.300
10 0 60443  76800.000000  0     -11008952.486       -794397.909     -22962627.050
10 0 60443  76920.000000  0     -11036781.196      -1171551.604     -22934163.135
10 0 60443  77040.000000  0     -11068219.497      -1547869.901     -22897741.315
10 0 60443  77160.000000  0     -11103243.258      -1923188.158     -22853375.119
10 0 60443  77280.000000  0     -11141824.508      -2297342.490     -22801080.830
10 0 60443  77400.000000  0     -11183931.460      -2670169.878     -22740877.486
10 0 60443  77520.000000  0     -11229528.534      -3041508.281     -22672786.870
10 0 60443  77640.000000  0     -11278576.388      -3411196.748     -22596833.497
10 0 60443  77760.000000  0     -11331031.948      -3779075.524     -22513044.611
10 0 60443  77880.000000  0     -11386848.438      -4144986.158     -22421450.169
10 0 60443  78000.000000  0     -11445975.422      -4508771.614     -22322082.831
10 0 60443  78120.000000  0     -11508358.843      -4870276.371     -22214977.947
10 0 60443  78240.000000  0     -11573941.060      -5229346.535     -22100173.546
10 0 60443  78360.000000  0     -11642660.900      -5585829.936     -21977710.318
10 0 60443  78480.000000  0     -11714453.701      -5939576.236     -21847631.600
10 0 60443  78600.000000  0     -11789251.365      -6290437.024     -21709983.361
10 0 60443  78720.000000  0     -11866982.411      -6638265.921     -21564814.182
10 0 60443  78840.000000  0     -11947572.030      -6982918.673     -21412175.241
10 0 60443  78960.000000  0     -12030942.144      -7324253.253     -21252120.292
10 0 60443  79080.000000  0     -12117011.469      -7662129.949     -21084705.646
10 0 60443  79200.000000  0     -12205695.573      -7996411.462     -20909990.150
10 0 60443  79320.000000  0     -12296906.949      -8326962.993     -20728035.165
10 0 60443  79440.000000  0     -12390555.078      -8653652.337     -20538904.545
10 0 60443  79560.000000  0     -12486546.500      -8976349.964     -20342664.613
10 0 60443  79680.000000  0     -12584784.893      -9294929.109     -20139384.135
10 0 60443  79800.000000  0     -12685171.139      -9609265.854     -19929134.298
10 0 60443  79920.000000  0     -12787603.409      -9919239.207     -19711988.682
10 0 60443  80040.000000  0     -12891977.238     -10224731.182     -19488023.237
10 0 60443  80160.000000  0     -12998185.607     -10525626.877     -19257316.250
10 0 60443  80280.000000  0     -13106119.030     -10821814.545     -19019948.322
10 0 60443  80400.000000  0     -13215665.636     -11113185.668     -18776002.337
10 0 60443  80520.000000  0     -13326711.254     -11399635.026     -18525563.431
10 0 60443  80640.000000  0     -13439139.509     -11681060.763     -18268718.965
10 0 60443  80760.000000  0     -13552831.908     -11957364.453     -18005558.491
10 0 60443  80880.000000  0     -13667667.931     -12228451.160     -17736173.721
10 0 60443  81000.000000  0     -13783525.129     -12494229.500     -17460658.495
10 0 60443  81120.000000  0     -13900279.218     -12754611.695     -17179108.747
10 0 60443  81240.000000  0     -14017804.175     -13009513.626     -16891622.470
10 0 60443  81360.000000  0     -14135972.337     -13258854.890     -16598299.686
10 0 60443  81480.000000  0     -14254654.500     -13502558.841     -16299242.403
10 0 60443  81600.000000  0     -14373720.021     -13740552.641     -15994554.587
10 0 60443  81720.000000  0     -14493036.919     -13972767.303     -15684342.120
10 0 60443  81840.000000  0     -14612471.978     -14199137.726     -15368712.765
10 0 60443  81960.000000  0     -14731890.853     -14419602.737     -15047776.127
10 0 60443  82080.000000  0     -14851158.170     -14634105.125     -14721643.617
10 0 60443  82200.000000  0     -14970137.637     -14842591.671     -14390428.409
10 0 60443  82320.000000  0     -15088692.148     -15045013.174     -14054245.406
10 0 60443  82440.000000  0     -15206683.890     -15241324.482     -13713211.192
10 0 60443  82560.000000  0     -15323974.451     -15431484.511     -13367444.000
10 0 60443  82680.000000  0     -15440424.928     -15615456.266     -13017063.666
10 0 60443  82800.000000  0     -15555896.037     -15793206.855     -12662191.586
10 0 60443  82920.000000  0     -15670248.221     -15964707.506     -12302950.678
10 0 60443  83040.000000  0     -15783341.757     -16129933.575     -11939465.335
10 0 60443  83160.000000  0     -15895036.870     -16288864.555     -11571861.387
10 0 60443  83280.000000  0     -16005193.839     -16441484.080     -11200266.052
10 0 60443  83400.000000  0     -16113673.108     -16587779.924     -10824807.894
10 0 60443  83520.000000  0     -16220335.394     -16727744.006     -10445616.782
10 0 60443  83640.000000  0     -16325041.800     -16861372.377     -10062823.837
10 0 60443  83760.000000  0     -16427653.918     -16988665.220      -9676561.398
10 0 60443  83880.000000  0     -16528033.944     -17109626.834      -9286962.964
10 0 60443  84000.000000  0     -16626044.783     -17224265.622      -8894163.158
10 0 60443  84120.000000  0     -16721550.157     -17332594.077      -8498297.676
10 0 60443  84240.000000  0     -16814414.714     -17434628.759      -8099503.240
10 0 60443  84360.000000  0     -16904504.134     -17530390.274      -7697917.553
10 0 60443  84480.000000  0     -16991685.233     -17619903.249      -7293679.250
10 0 60443  84600.000000  0     -17075826.073     -17703196.301      -6886927.854
10 0 60443  84720.000000  0     -17156796.059     -17780302.011      -6477803.722
10 0 60443  84840.000000  0     -17234466.052     -17851256.885      -6066448.002
10 0 60443  84960.000000  0     -17308708.464     -17916101.319      -5653002.583
10 0 60443  85080.000000  0     -17379397.361     -17974879.560      -5237610.046
10 0 60443  85200.000000  0     -17446408.565     -18027639.663      -4820413.617
10 0 60443  85320.000000  0     -17509619.752     -18074433.445      -4401557.115
10 0 60443  85440.000000  0     -17568910.548     -18115316.437      -3981184.908
10 0 60443  85560.000000  0     -17624162.628     -18150347.835      -3559441.857
10 0 60443  85680.000000  0     -17675259.810     -18179590.446      -3136473.273
10 0 60443  85800.000000  0     -17722088.146     -18203110.632      -2712424.862
10 0 60443  85920.000000  0     -17764536.017     -18220978.251      -2287442.682
10 0 60443  86040.000000  0     -17802494.219     -18233266.598      -1861673.086
10 0 60443  86160.000000  0     -17835856.057     -18240052.340      -1435262.678
10 0 60443  86280.000000  0     -17864517.425     -18241415.451      -1008358.259
99